This is the latest recevied weather packets stored in our database for station/object KD7AWQ. If no packets are shown the sender has not sent any weather packets the latest 10 day(s).
| Time | Temp. | Humidity | Pressure | Rain* | Wind** | Luminosity | Snow |
|---|---|---|---|---|---|---|---|
| 1787627514 | 31.67° C | 25% | 1187.5 hPa | 0 mm | - | 0 W/m² | - |
| 1787627209 | 31.67° C | 25% | 1187.8 hPa | 0 mm | - | 0 W/m² | - |
| 1787626907 | 31.67° C | 25% | 1187.4 hPa | 0 mm | - | 0 W/m² | - |
| 1787626606 | 31.67° C | 24% | 1187.4 hPa | 0 mm | - | 0 W/m² | - |
| 1787626301 | 31.67° C | 24% | 1187.4 hPa | 0 mm | - | 0 W/m² | - |
| 1787626000 | 31.67° C | 24% | 1187.2 hPa | 0 mm | - | 0 W/m² | - |
| 1787625696 | 31.67° C | 24% | 1187.2 hPa | 0 mm | - | 0 W/m² | - |
| 1787625392 | 32.22° C | 24% | 1187.1 hPa | 0 mm | - | 0 W/m² | - |
| 1787625088 | 32.22° C | 24% | 1187.1 hPa | 0 mm | - | 0 W/m² | - |
| 1787624784 | 32.22° C | 24% | 1186.9 hPa | 0 mm | - | 0 W/m² | - |
| 1787624484 | 32.22° C | 24% | 1186.7 hPa | 0 mm | - | 0 W/m² | - |
| 1787624179 | 32.22° C | 24% | 1186.7 hPa | 0 mm | - | 0 W/m² | - |
| 1787623874 | 32.22° C | 24% | 1186.9 hPa | 0 mm | - | 0 W/m² | - |
| 1787623574 | 32.22° C | 24% | 1186.9 hPa | 0 mm | - | 1 W/m² | - |
| 1787623269 | 32.22° C | 24% | 1186.6 hPa | 0 mm | - | 2 W/m² | - |
| 1787622962 | 32.78° C | 24% | 1186.9 hPa | 0 mm | - | 4 W/m² | - |
| 1787622659 | 32.78° C | 24% | 1186.9 hPa | 0 mm | - | 8 W/m² | - |
| 1787622355 | 32.78° C | 24% | 1186.6 hPa | 0 mm | - | 11 W/m² | - |
| 1787622050 | 32.78° C | 23% | 1186.6 hPa | 0 mm | - | 14 W/m² | - |
| 1787621749 | 33.33° C | 23% | 1186.7 hPa | 0 mm | - | 19 W/m² | - |
| 1787621444 | 33.33° C | 23% | 1186.5 hPa | 0 mm | - | 26 W/m² | - |
| 1787621141 | 33.33° C | 23% | 1186.2 hPa | 0 mm | - | 32 W/m² | - |
| 1787620837 | 33.89° C | 23% | 1186.5 hPa | 0 mm | - | 37 W/m² | - |
| 1787620531 | 33.89° C | 22% | 1186.2 hPa | 0 mm | - | 54 W/m² | - |
| 1787620227 | 34.44° C | 22% | 1186.3 hPa | 0 mm | - | 73 W/m² | - |
* Rain latest hour (hover to see other rain measurements)
** Current wind speed in m/s (hover to see current wind gust speed)